Location: Arcueil
(48.7999°N, 2.3326°E)
Time: 23:20:15
(UTC+00:00)

Lacrosse 5 rocket - Pass Details

Date: 03 February 2023
Orbit: 455 x 612 km, 57.0° (Epoch: 01 April)

Event Time Altitude Azimuth Distance (km) Brightness Sun altitude
Rises 19:29:28 0° 301° (WNW) 2,491 5.7 -26.2°
Reaches altitude 10° 19:31:41 10° 292° (WNW) 1,626 4.6 -26.6°
Enters shadow 19:34:14 31° 254° (WSW) 849 2.8 -27.0°
